• In Netherlands
  • List of Countries
  • For 7 days
  • Water Temperature
  • Satellite Maps
  • Weather Map
  • Weather Widgets
  • user-avatar
    Login

    Hourly Weather Vyartsilya

    Today, 22 July, Sunday

    Time Temperature Precipitation Wind Pressure Humidity
    00:00 +20°C° 0.1 mm 4 mps 747 mmHg 95%
    01:00 +20°C° 0.1 mm 4 mps 747 mmHg 96%
    02:00 +20°C° 0 mm 3 mps 747 mmHg 98%
    03:00 +20°C° 0.1 mm 3 mps 747 mmHg 98%
    04:00 +20°C° 0.1 mm 3 mps 747 mmHg 98%
    05:00 +20°C° 0.1 mm 3 mps 747 mmHg 97%
    06:00 +21°C° 0 mm 3 mps 748 mmHg 95%
    07:00 +21°C° 0 mm 3 mps 748 mmHg 94%
    08:00 +21°C° 0 mm 3 mps 748 mmHg 92%
    09:00 +22°C° 0.1 mm 3 mps 748 mmHg 87%
    10:00 +24°C° 0.1 mm 3 mps 748 mmHg 81%
    11:00 +25°C° 0.1 mm 3 mps 749 mmHg 76%
    12:00 +26°C° 0.2 mm 3 mps 749 mmHg 72%
    13:00 +27°C° 0.2 mm 3 mps 749 mmHg 68%
    14:00 +27°C° 0 mm 4 mps 749 mmHg 66%
    15:00 +27°C° 0.3 mm 4 mps 749 mmHg 67%
    16:00 +26°C° 0.3 mm 4 mps 749 mmHg 68%
    17:00 +26°C° 0.3 mm 3 mps 749 mmHg 68%
    18:00 +25°C° 0 mm 3 mps 749 mmHg 73%
    19:00 +24°C° 0 mm 3 mps 749 mmHg 77%
    20:00 +23°C° 0 mm 2 mps 749 mmHg 82%
    21:00 +21°C° 0 mm 2 mps 749 mmHg 87%
    22:00 +20°C° 0 mm 2 mps 750 mmHg 91%
    23:00 +19°C° 0 mm 2 mps 750 mmHg 96%

    Tomorrow, 23 July, Monday

    Time Temperature Precipitation Wind Pressure Humidity
    00:00 +19°C° 0 mm 2 mps 750 mmHg 96%
    01:00 +19°C° 0 mm 2 mps 750 mmHg 96%
    02:00 +18°C° 0 mm 2 mps 750 mmHg 96%
    03:00 +20°C° 0 mm 1 mps 750 mmHg 95%
    04:00 +20°C° 0 mm 1 mps 751 mmHg 93%
    05:00 +20°C° 0 mm 1 mps 751 mmHg 92%
    06:00 +21°C° 0 mm 2 mps 751 mmHg 86%
    07:00 +23°C° 0 mm 2 mps 751 mmHg 79%
    08:00 +24°C° 0 mm 2 mps 751 mmHg 73%
    09:00 +25°C° 0.1 mm 2 mps 751 mmHg 68%
    10:00 +26°C° 0.1 mm 2 mps 751 mmHg 63%
    11:00 +28°C° 0.1 mm 2 mps 751 mmHg 57%
    12:00 +28°C° 0.1 mm 2 mps 751 mmHg 55%
    13:00 +28°C° 0.1 mm 3 mps 751 mmHg 53%
    14:00 +29°C° 0.1 mm 3 mps 751 mmHg 51%
    15:00 +28°C° 0.1 mm 2 mps 751 mmHg 52%
    16:00 +28°C° 0.1 mm 2 mps 751 mmHg 53%
    17:00 +28°C° 0.1 mm 2 mps 751 mmHg 54%
    18:00 +26°C° 0 mm 2 mps 751 mmHg 61%
    19:00 +25°C° 0 mm 2 mps 752 mmHg 69%
    20:00 +23°C° 0 mm 1 mps 752 mmHg 77%
    21:00 +22°C° 0 mm 1 mps 752 mmHg 83%
    22:00 +21°C° 0 mm 1 mps 752 mmHg 88%
    23:00 +20°C° 0 mm 1 mps 753 mmHg 94%

    Day after tomorrow, 24 July, Tuesday

    Time Temperature Precipitation Wind Pressure Humidity
    00:00 +19°C° 0 mm 1 mps 753 mmHg 95%
    01:00 +19°C° 0 mm 1 mps 753 mmHg 95%
    02:00 +19°C° 0 mm 1 mps 753 mmHg 95%
    03:00 +19°C° 0 mm 1 mps 753 mmHg 94%
    04:00 +20°C° 0 mm 1 mps 753 mmHg 92%
    05:00 +20°C° 0 mm 1 mps 753 mmHg 90%
    06:00 +22°C° 0.1 mm 1 mps 754 mmHg 83%
    07:00 +23°C° 0.1 mm 1 mps 754 mmHg 76%
    08:00 +25°C° 0.1 mm 1 mps 754 mmHg 69%
    09:00 +26°C° 0.7 mm 2 mps 754 mmHg 67%
    10:00 +27°C° 0.7 mm 2 mps 754 mmHg 66%
    11:00 +27°C° 0.7 mm 2 mps 754 mmHg 64%
    12:00 +27°C° 0.6 mm 3 mps 754 mmHg 63%
    13:00 +27°C° 0.6 mm 3 mps 754 mmHg 62%
    14:00 +27°C° 0.6 mm 3 mps 754 mmHg 61%
    15:00 +27°C° 0 mm 3 mps 754 mmHg 58%
    16:00 +28°C° 0 mm 2 mps 754 mmHg 55%
    17:00 +28°C° 0 mm 2 mps 754 mmHg 52%
    18:00 +26°C° 0 mm 2 mps 754 mmHg 58%
    19:00 +25°C° 0 mm 2 mps 754 mmHg 64%
    20:00 +23°C° 0 mm 1 mps 754 mmHg 70%
    21:00 +22°C° 0 mm 1 mps 755 mmHg 72%
    22:00 +21°C° 0 mm 1 mps 755 mmHg 75%
    23:00 +20°C° 0 mm 1 mps 755 mmHg 77%

    25 July, Wednesday

    Time Temperature Precipitation Wind Pressure Humidity
    00:00 +20°C° 0 mm 1 mps 755 mmHg 79%
    01:00 +19°C° 0 mm 1 mps 755 mmHg 82%
    02:00 +19°C° 0 mm 1 mps 756 mmHg 84%
    03:00 +19°C° 0 mm 1 mps 756 mmHg 84%
    04:00 +19°C° 0 mm 1 mps 756 mmHg 84%
    05:00 +20°C° 0 mm 1 mps 756 mmHg 84%
    06:00 +21°C° 0 mm 1 mps 756 mmHg 77%
    07:00 +23°C° 0 mm 2 mps 756 mmHg 71%
    08:00 +25°C° 0 mm 2 mps 756 mmHg 64%
    09:00 +26°C° 0 mm 2 mps 756 mmHg 60%
    10:00 +27°C° 0 mm 2 mps 756 mmHg 56%
    11:00 +28°C° 0 mm 2 mps 756 mmHg 53%
    12:00 +28°C° 0.2 mm 2 mps 756 mmHg 53%
    13:00 +28°C° 0.2 mm 2 mps 756 mmHg 54%
    14:00 +28°C° 0.2 mm 2 mps 755 mmHg 55%
    15:00 +28°C° 0.4 mm 1 mps 755 mmHg 57%
    16:00 +28°C° 0.4 mm 1 mps 755 mmHg 59%
    17:00 +28°C° 0.4 mm 1 mps 755 mmHg 60%
    18:00 +26°C° 0.1 mm 1 mps 756 mmHg 67%
    19:00 +25°C° 0.1 mm 1 mps 756 mmHg 73%
    20:00 +24°C° 0.1 mm 1 mps 756 mmHg 80%
    21:00 +23°C° 0 mm 1 mps 756 mmHg 83%
    22:00 +22°C° 0 mm 1 mps 756 mmHg 87%
    23:00 +21°C° 0 mm 1 mps 756 mmHg 90%

    26 July, Thursday

    Time Temperature Precipitation Wind Pressure Humidity
    00:00 +21°C° 0 mm 1 mps 757 mmHg 92%
    01:00 +20°C° 0 mm 1 mps 757 mmHg 93%
    02:00 +20°C° 0 mm 1 mps 757 mmHg 95%
    03:00 +19°C° 0 mm 2 mps 757 mmHg 95%
    04:00 +20°C° 0 mm 2 mps 757 mmHg 94%
    05:00 +20°C° 0 mm 2 mps 757 mmHg 94%
    06:00 +21°C° 0.1 mm 2 mps 758 mmHg 89%
    07:00 +23°C° 0.1 mm 2 mps 758 mmHg 83%
    08:00 +24°C° 0.1 mm 3 mps 758 mmHg 78%
    09:00 +25°C° 0.1 mm 3 mps 758 mmHg 69%
    10:00 +27°C° 0.1 mm 3 mps 758 mmHg 59%
    11:00 +28°C° 0.1 mm 3 mps 758 mmHg 50%
    12:00 +28°C° 0 mm 3 mps 758 mmHg 47%
    13:00 +29°C° 0 mm 2 mps 758 mmHg 44%
    14:00 +29°C° 0 mm 2 mps 758 mmHg 42%
    15:00 +29°C° 0 mm 2 mps 757 mmHg 42%
    16:00 +29°C° 0 mm 2 mps 757 mmHg 43%
    17:00 +29°C° 0 mm 2 mps 757 mmHg 43%
    18:00 +28°C° 0 mm 1 mps 757 mmHg 50%
    19:00 +26°C° 0 mm 1 mps 757 mmHg 56%
    20:00 +25°C° 0 mm 1 mps 757 mmHg 62%
    21:00 +24°C° 0 mm 1 mps 758 mmHg 65%
    22:00 +23°C° 0 mm 2 mps 758 mmHg 68%
    23:00 +21°C° 0 mm 2 mps 758 mmHg 70%

    27 July, Friday

    Time Temperature Precipitation Wind Pressure Humidity
    00:00 +20°C° 0 mm 2 mps 758 mmHg 73%
    01:00 +20°C° 0 mm 2 mps 758 mmHg 76%
    02:00 +19°C° 0 mm 2 mps 758 mmHg 78%
    03:00 +20°C° 0 mm 2 mps 758 mmHg 78%
    04:00 +20°C° 0 mm 2 mps 758 mmHg 77%
    05:00 +20°C° 0 mm 2 mps 758 mmHg 77%
    06:00 +23°C° 0 mm 2 mps 758 mmHg 71%
    07:00 +25°C° 0 mm 2 mps 758 mmHg 66%
    08:00 +26°C° 0 mm 2 mps 759 mmHg 60%
    09:00 +28°C° 0 mm 2 mps 759 mmHg 56%
    10:00 +29°C° 0 mm 3 mps 759 mmHg 51%
    11:00 +31°C° 0 mm 3 mps 759 mmHg 46%
    12:00 +31°C° 0 mm 3 mps 758 mmHg 45%
    13:00 +33°C° 0 mm 3 mps 758 mmHg 44%
    14:00 +33°C° 0 mm 3 mps 758 mmHg 43%
    15:00 +33°C° 0 mm 3 mps 758 mmHg 43%
    16:00 +31°C° 0 mm 2 mps 758 mmHg 44%
    17:00 +31°C° 0 mm 2 mps 758 mmHg 44%
    18:00 +29°C° 0 mm 2 mps 758 mmHg 51%
    19:00 +28°C° 0 mm 1 mps 759 mmHg 59%
    20:00 +26°C° 0 mm 1 mps 759 mmHg 66%
    21:00 +25°C° 0.6 mm 1 mps 759 mmHg 70%
    22:00 +24°C° 0.6 mm 1 mps 759 mmHg 75%
    23:00 +23°C° 0.6 mm 1 mps 759 mmHg 80%
    Show more